This is the latest recevied weather packets stored in our database for station/object HP1CDW-10. If no packets are shown the sender has not sent any weather packets the latest 10 day(s).
| Time | Temp. | Humidity | Pressure | Rain* | Wind** | Luminosity | Snow |
|---|---|---|---|---|---|---|---|
| 1777974414 | 35° C | 46% | 1001.9 hPa | - | - | - | - |
| 1777973809 | 35° C | 46% | 1001.9 hPa | - | - | - | - |
| 1777973204 | 35° C | 46% | 1002 hPa | - | - | - | - |
| 1777972600 | 35.56° C | 46% | 1001.9 hPa | - | - | - | - |
| 1777971390 | 35.56° C | 46% | 1002 hPa | - | - | - | - |
| 1777970785 | 35.56° C | 46% | 1001.9 hPa | - | - | - | - |
| 1777970180 | 35.56° C | 46% | 1002 hPa | - | - | - | - |
| 1777969576 | 35.56° C | 46% | 1002 hPa | - | - | - | - |
| 1777968971 | 35.56° C | 46% | 1002.3 hPa | - | - | - | - |
| 1777968366 | 35.56° C | 46% | 1002.3 hPa | - | - | - | - |
| 1777967761 | 35.56° C | 45% | 1002.4 hPa | - | - | - | - |
| 1777967156 | 35.56° C | 45% | 1002.3 hPa | - | - | - | - |
| 1777966552 | 35.56° C | 45% | 1002.2 hPa | - | - | - | - |
| 1777965342 | 35.56° C | 45% | 1002.5 hPa | - | - | - | - |
| 1777964737 | 35.56° C | 46% | 1002.6 hPa | - | - | - | - |
| 1777964133 | 35° C | 48% | 1002.7 hPa | - | - | - | - |
| 1777963528 | 35.56° C | 46% | 1002.9 hPa | - | - | - | - |
| 1777962923 | 35.56° C | 46% | 1002.9 hPa | - | - | - | - |
| 1777962318 | 35.56° C | 46% | 1003 hPa | - | - | - | - |
| 1777961713 | 35.56° C | 45% | 1003.2 hPa | - | - | - | - |
| 1777961109 | 35.56° C | 45% | 1003.3 hPa | - | - | - | - |
| 1777958689 | 35° C | 48% | 1003.6 hPa | - | - | - | - |
| 1777958085 | 35.56° C | 47% | 1003.6 hPa | - | - | - | - |
| 1777957480 | 35° C | 48% | 1003.8 hPa | - | - | - | - |
| 1777956875 | 36.11° C | 45% | 1003.9 hPa | - | - | - | - |
* Rain since midnight (hover to see other rain measurements)
** Current wind speed in m/s (hover to see current wind gust speed)